Weather History for Fitchburg, MA

Change the Weather History Date:

Friday, September 27, 2013

  Actual Average (KORH) Record (KORH)
Temperature  
Mean Temperature 59 °F 57 °F  
Max Temperature 66 °F 65 °F 85 °F (1953)
Min Temperature 50 °F 49 °F 30 °F (1957)
Degree Days  
Heating Degree Days 6 9  
Month to date heating degree days 125  
Since 1 July heating degree days 164  
Cooling Degree Days 0 0  
Month to date cooling degree days 41  
Year to date cooling degree days 467  
Growing Degree Days 9 (Base 50)    
Moisture  
Dew Point 49 °F    
Average Humidity 72    
Maximum Humidity 93    
Minimum Humidity 54    
Precipitation  
Precipitation 0.00 in 0.15 in 3.16 in (1993)
Month to date precipitation 3.46  
Year to date precipitation 34.82  
Snow  
Snow 0.00 in 0.00 in 0.00 in (2002)
Month to date snowfall 0.0  
Since 1 July snowfall 0.0  
Since 1 September snowfall 0.0  
Snow Depth -    
Sea Level Pressure  
Sea Level Pressure 30.23 in    
Wind  
Wind Speed 3 mph (North)    
Max Wind Speed 8 mph    
Max Gust Speed -    
Visibility 10 miles    
Events      
T = Trace of Precipitation, MM = Missing Value Source: NWS Daily Summary

Daily Weather History Graph

Daily Weather History Graph

Search for Another Location

Airport:

Trip Planner

Search our weather history database for the weather conditions in past years. The results will help you decide how hot, cold, wet, or windy it might be!

Date:

Astronomy

Sep. 27, 2013 Rise Set
Actual Time 6:40 AM EDT 6:35 PM EDT
Civil Twilight 6:11 AM EDT 7:03 PM EDT
Nautical Twilight 5:39 AM EDT 7:35 PM EDT
Astronomical Twilight 5:05 AM EDT 8:09 PM EDT
Moon No Moon Rise 2:18 PM EDT (9/27)
Length of Visible Light 12h 51m
Length of Day
11h 55m
Last Quarter, 45% of the Moon is Illuminated
Sep 27
Last Quarter
Oct 4
New
Oct 11
First Quarter
Oct 18
Full
Oct 26
Last Quarter

Hourly Weather History & Observations

Time (EDT) Temp. Dew Point Humidity Pressure Visibility Wind Dir Wind Speed Gust Speed Precip Events Conditions
12:52 AM 57.0 °F 50.0 °F 77% 30.16 in 10.0 mi Calm Calm - N/A   Overcast
1:52 AM 55.9 °F 50.0 °F 80% 30.17 in 10.0 mi NW 3.5 mph - N/A   Overcast
2:52 AM 57.0 °F 50.0 °F 77% 30.16 in 10.0 mi NNW 3.5 mph - N/A   Overcast
3:52 AM 57.0 °F 50.0 °F 77% 30.16 in 10.0 mi North 3.5 mph - N/A   Overcast
4:52 AM 57.0 °F 48.9 °F 74% 30.17 in 10.0 mi NNW 4.6 mph - N/A   Overcast
5:52 AM 57.0 °F 48.9 °F 74% 30.19 in 10.0 mi NNW 4.6 mph - N/A   Overcast
6:52 AM 57.0 °F 48.9 °F 74% 30.21 in 10.0 mi North 6.9 mph - N/A   Overcast
7:52 AM 57.9 °F 48.9 °F 72% 30.22 in 10.0 mi North 5.8 mph - N/A   Overcast
8:52 AM 59.0 °F 48.9 °F 69% 30.24 in 10.0 mi NNW 6.9 mph - N/A   Overcast
9:52 AM 60.1 °F 48.9 °F 67% 30.25 in 10.0 mi North 6.9 mph - N/A   Overcast
10:52 AM 63.0 °F 48.9 °F 60% 30.25 in 10.0 mi Variable 6.9 mph - N/A   Overcast
11:52 AM 64.9 °F 48.0 °F 54% 30.25 in 10.0 mi North 8.1 mph - N/A   Overcast
12:52 PM 64.0 °F 48.9 °F 58% 30.25 in 10.0 mi Variable 4.6 mph - N/A   Overcast
1:52 PM 64.9 °F 48.0 °F 54% 30.23 in 10.0 mi NNE 5.8 mph - N/A   Overcast
2:52 PM 64.9 °F 50.0 °F 58% 30.23 in 10.0 mi Variable 3.5 mph - N/A   Overcast
3:52 PM 66.0 °F 48.9 °F 54% 30.22 in 10.0 mi NE 4.6 mph - N/A   Overcast
4:52 PM 64.9 °F 48.9 °F 56% 30.22 in 10.0 mi ENE 3.5 mph - N/A   Mostly Cloudy
5:52 PM 66.0 °F 50.0 °F 56% 30.23 in 10.0 mi North 4.6 mph - N/A   Clear
6:52 PM 59.0 °F 52.0 °F 78% 30.25 in 10.0 mi Calm Calm - N/A   Clear
7:52 PM 55.9 °F 52.0 °F 87% 30.25 in 10.0 mi Calm Calm - N/A   Clear
8:52 PM 55.0 °F 52.0 °F 89% 30.26 in 10.0 mi Calm Calm - N/A   Clear
9:52 PM 53.1 °F 50.0 °F 89% 30.28 in 10.0 mi Calm Calm - N/A   Clear
10:52 PM 52.0 °F 48.9 °F 89% 30.28 in 10.0 mi NNW 3.5 mph - N/A   Clear
11:52 PM 50.0 °F 48.0 °F 93% 30.29 in 10.0 mi Calm Calm - N/A   Clear